Weather History for Albany, NY

Change the Weather History Date:

Sunday, May 19, 2013

  Actual Average Record
Temperature  
Mean Temperature 55 °F 59 °F  
Max Temperature 60 °F 70 °F 91 °F (1962)
Min Temperature 49 °F 48 °F 29 °F (1981)
Degree Days  
Heating Degree Days 10 7  
Month to date heating degree days 135 172  
Since 1 July heating degree days 6197 6565  
Cooling Degree Days 0 1  
Month to date cooling degree days 1 8  
Year to date cooling degree days 1 12  
Growing Degree Days 4 (Base 50)    
Moisture  
Dew Point 52 °F    
Average Humidity 86    
Maximum Humidity 96    
Minimum Humidity 75    
Precipitation  
Precipitation 0.09 in 0.12 in 1.27 in (1976)
Month to date precipitation 1.04 2.10  
Year to date precipitation 9.13 13.27  
Snow  
Snow 0.00 in 0.00 in T in (1976)
Month to date snowfall 0.0 0.1  
Since 1 July snowfall 51.4 59.1  
Snow Depth 0.00 in    
Sea Level Pressure  
Sea Level Pressure 30.25 in    
Wind  
Wind Speed 8 mph (SSE)    
Max Wind Speed 15 mph    
Max Gust Speed 23 mph    
Visibility 9 miles    
Events Rain    
T = Trace of Precipitation, MM = Missing Value Source: NWS Daily Summary

Daily Weather History Graph

Daily Weather History Graph

Search for Another Location

Airport:

Trip Planner

Search our weather history database for the weather conditions in past years. The results will help you decide how hot, cold, wet, or windy it might be!

Date:

Astronomy

May. 19, 2013 Rise Set
Actual Time 5:28 AM EDT 8:15 PM EDT
Civil Twilight 4:55 AM EDT 8:48 PM EDT
Nautical Twilight 4:14 AM EDT 9:30 PM EDT
Astronomical Twilight 3:26 AM EDT 10:18 PM EDT
Moon 2:08 PM EDT (5/19) 1:59 AM EDT (5/19)
Length of Visible Light 15h 52m
Length of Day
14h 46m
Waxing Gibbous, 65% of the Moon is Illuminated
May 19
Waxing Gibbous
May 25
Full
May 31
Last Quarter
Jun 8
New
Jun 16
First Quarter

Hourly Weather History & Observations

Time (EDT) Temp. Dew Point Humidity Pressure Visibility Wind Dir Wind Speed Gust Speed Precip Events Conditions
12:51 AM 55.9 °F 48.9 °F 77% 30.27 in 10.0 mi SSE 6.9 mph - N/A   Overcast
1:51 AM 55.0 °F 48.9 °F 80% 30.26 in 10.0 mi SSE 3.5 mph - N/A   Overcast
2:51 AM 53.1 °F 48.9 °F 86% 30.26 in 10.0 mi Calm Calm - N/A   Overcast
3:51 AM 51.8 °F 48.2 °F 88% 30.26 in 10.0 mi Calm Calm - N/A   Mostly Cloudy
4:51 AM 51.1 °F 46.9 °F 86% 30.27 in 10.0 mi Calm Calm - N/A   Mostly Cloudy
5:51 AM 48.9 °F 46.9 °F 93% 30.28 in 10.0 mi Calm Calm - N/A   Mostly Cloudy
6:31 AM 50.0 °F 48.2 °F 94% 30.29 in 10.0 mi Calm Calm - N/A   Mostly Cloudy
6:51 AM 52.0 °F 50.0 °F 93% 30.29 in 10.0 mi Calm Calm - N/A   Overcast
7:51 AM 57.0 °F 51.1 °F 81% 30.29 in 10.0 mi South 5.8 mph - N/A   Mostly Cloudy
8:51 AM 59.0 °F 51.1 °F 75% 30.30 in 10.0 mi South 10.4 mph - N/A   Overcast
9:51 AM 57.9 °F 52.0 °F 81% 30.30 in 10.0 mi South 13.8 mph - N/A   Overcast
10:07 AM 57.2 °F 51.8 °F 82% 30.30 in 10.0 mi South 9.2 mph - 0.00 in   Light Drizzle
10:41 AM 57.2 °F 53.6 °F 88% 30.30 in 7.0 mi SSE 10.4 mph - 0.00 in Rain Light Rain
10:51 AM 57.0 °F 54.0 °F 89% 30.31 in 7.0 mi SSE 10.4 mph - 0.00 in Rain Light Rain
11:24 AM 57.2 °F 53.6 °F 88% 30.30 in 3.0 mi SSE 10.4 mph - 0.03 in Rain Light Rain
11:51 AM 57.0 °F 54.0 °F 89% 30.30 in 3.0 mi SSE 10.4 mph 19.6 mph 0.04 in   Overcast
12:51 PM 57.9 °F 55.0 °F 90% 30.28 in 10.0 mi SSE 8.1 mph 16.1 mph 0.00 in Rain Light Rain
1:51 PM 59.0 °F 55.0 °F 87% 30.26 in 10.0 mi SSE 10.4 mph - 0.00 in Rain Light Rain
2:51 PM 57.9 °F 55.0 °F 90% 30.25 in 10.0 mi SSE 9.2 mph - 0.00 in Rain Light Rain
3:51 PM 57.9 °F 55.0 °F 90% 30.24 in 10.0 mi South 6.9 mph - 0.01 in Rain Light Rain
4:51 PM 57.9 °F 55.0 °F 90% 30.22 in 7.0 mi SSE 9.2 mph 19.6 mph 0.04 in Rain Light Rain
5:39 PM 59.0 °F 55.4 °F 88% 30.21 in 10.0 mi South 10.4 mph 19.6 mph 0.00 in   Overcast
5:51 PM 59.0 °F 54.0 °F 83% 30.20 in 10.0 mi SSE 13.8 mph 20.7 mph 0.00 in   Overcast
6:51 PM 59.0 °F 53.1 °F 81% 30.19 in 10.0 mi South 12.7 mph 18.4 mph N/A   Overcast
7:51 PM 57.9 °F 54.0 °F 87% 30.19 in 10.0 mi South 11.5 mph - N/A   Overcast
8:51 PM 57.9 °F 53.1 °F 84% 30.19 in 10.0 mi South 10.4 mph 19.6 mph N/A   Overcast
9:51 PM 57.9 °F 53.1 °F 84% 30.19 in 10.0 mi South 8.1 mph - N/A   Overcast
10:51 PM 57.9 °F 53.1 °F 84% 30.17 in 10.0 mi South 11.5 mph 19.6 mph N/A   Overcast
11:51 PM 57.9 °F 53.1 °F 84% 30.16 in 10.0 mi South 8.1 mph 16.1 mph N/A   Overcast